| time (UTC) | temp C | wind direction | speed KPH | gust KPH | rain 1hr cm | rain 24hr cm | rain mn cm | humidity % | barometer mb |
| 20260902184828 | 26 | 301 | 6.4 | 11.3 | 0.00 | 0.00 | 0.00 | 55 | 1020.2 |
| 20260902184324 | 26 | 236 | 3.2 | 4.8 | 0.00 | 0.00 | 0.00 | 54 | 1020.3 |
| 20260902183819 | 26 | 103 | 1.6 | 4.8 | 0.00 | 0.00 | 0.00 | 54 | 1020.0 |
| 20260902183315 | 25 | 156 | 0.0 | 3.2 | 0.00 | 0.00 | 0.00 | 54 | 1020.2 |
| 20260902182811 | 25 | 52 | 3.2 | 6.4 | 0.00 | 0.00 | 0.00 | 54 | 1020.3 |
| 20260902182307 | 25 | 65 | 1.6 | 4.8 | 0.00 | 0.00 | 0.00 | 54 | 1020.1 |
| 20260902181804 | 25 | 299 | 8.0 | 12.9 | 0.00 | 0.00 | 0.00 | 52 | 1020.4 |
| 20260902181303 | 25 | 271 | 3.2 | 11.3 | 0.00 | 0.00 | 0.00 | 53 | 1020.4 |
| 20260902180758 | 25 | 146 | 1.6 | 3.2 | 0.00 | 0.00 | 0.00 | 54 | 1020.3 |
| 20260902180253 | 25 | 233 | 3.2 | 4.8 | 0.00 | 0.00 | 0.00 | 53 | 1020.2 |
| 20260902175748 | 25 | 198 | 6.4 | 6.4 | 0.00 | 0.00 | 0.00 | 53 | 1020.3 |
| 20260902175244 | 25 | 253 | 4.8 | 4.8 | 0.00 | 0.00 | 0.00 | 52 | 1020.4 |
| 20260902174740 | 25 | 144 | 1.6 | 4.8 | 0.00 | 0.00 | 0.00 | 53 | 1020.3 |
| 20260902174236 | 25 | 94 | 0.0 | 1.6 | 0.00 | 0.00 | 0.00 | 55 | 1020.4 |
| 20260902173732 | 24 | 114 | 3.2 | 3.2 | 0.00 | 0.00 | 0.00 | 55 | 1020.2 |
| 20260902173231 | 24 | 84 | 4.8 | 4.8 | 0.00 | 0.00 | 0.00 | 56 | 1020.4 |
| 20260902172726 | 24 | 131 | 0.0 | 3.2 | 0.00 | 0.00 | 0.00 | 56 | 1020.4 |
| 20260902172226 | 24 | 198 | 3.2 | 4.8 | 0.00 | 0.00 | 0.00 | 54 | 1020.5 |
| 20260902171721 | 24 | 62 | 1.6 | 1.6 | 0.00 | 0.00 | 0.00 | 55 | 1020.1 |
| 20260902171216 | 23 | 299 | 1.6 | 3.2 | 0.00 | 0.00 | 0.00 | 56 | 1020.3 |
| 20260902170712 | 23 | 103 | 1.6 | 1.6 | 0.00 | 0.00 | 0.00 | 55 | 1020.1 |
| 20260902170207 | 23 | 136 | 1.6 | 3.2 | 0.00 | 0.00 | 0.00 | 57 | 1020.2 |
| 20260902165702 | 23 | 109 | 0.0 | 1.6 | 0.00 | 0.00 | 0.00 | 58 | 1020.4 |
| 20260902165156 | 22 | 72 | 0.0 | 3.2 | 0.00 | 0.00 | 0.00 | 58 | 1020.1 |
| 20260902164652 | 23 | 46 | 0.0 | 3.2 | 0.00 | 0.00 | 0.00 | 58 | 1020.3 |
| 20260902164151 | 22 | 121 | 1.6 | 4.8 | 0.00 | 0.00 | 0.00 | 55 | 1020.0 |
| 20260902163646 | 22 | 84 | 0.0 | 1.6 | 0.00 | 0.00 | 0.00 | 55 | 1020.1 |
| 20260902163146 | 22 | 91 | 1.6 | 3.2 | 0.00 | 0.00 | 0.00 | 60 | 1020.2 |
| 20260902162644 | 22 | 112 | 1.6 | 3.2 | 0.00 | 0.00 | 0.00 | 60 | 1020.1 |
| 20260902162138 | 22 | 106 | 1.6 | 4.8 | 0.00 | 0.00 | 0.00 | 65 | 1020.0 |
| 20260902161634 | 21 | 135 | 1.6 | 3.2 | 0.00 | 0.00 | 0.00 | 64 | 1020.0 |
| 20260902161130 | 21 | 123 | 1.6 | 4.8 | 0.00 | 0.00 | 0.00 | 63 | 1019.9 |
| 20260902160626 | 21 | 78 | 0.0 | 1.6 | 0.00 | 0.00 | 0.00 | 67 | 1020.0 |
| 20260902160121 | 21 | 89 | 3.2 | 3.2 | 0.00 | 0.00 | 0.00 | 69 | 1020.0 |
| 20260902155619 | 21 | 90 | 3.2 | 3.2 | 0.00 | 0.00 | 0.00 | 72 | 1020.1 |
| 20260902155118 | 21 | 161 | 1.6 | 3.2 | 0.00 | 0.00 | 0.00 | 73 | 1020.0 |
| 20260902154614 | 20 | 128 | 3.2 | 4.8 | 0.00 | 0.00 | 0.00 | 74 | 1020.2 |
| 20260902154108 | 20 | 148 | 3.2 | 4.8 | 0.00 | 0.00 | 0.00 | 76 | 1020.1 |
| 20260902153607 | 20 | 123 | 1.6 | 4.8 | 0.00 | 0.00 | 0.00 | 77 | 1020.3 |
| 20260902153103 | 20 | 136 | 0.0 | 1.6 | 0.00 | 0.00 | 0.00 | 77 | 1020.1 |
| 20260902152559 | 20 | 153 | 3.2 | 4.8 | 0.00 | 0.00 | 0.00 | 77 | 1020.1 |
| 20260902152054 | 20 | 118 | 1.6 | 3.2 | 0.00 | 0.00 | 0.00 | 77 | 1020.2 |
| 20260902151549 | 19 | 122 | 0.0 | 1.6 | 0.00 | 0.00 | 0.00 | 80 | 1020.3 |
| 20260902151048 | 19 | 141 | 0.0 | 0.0 | 0.00 | 0.00 | 0.00 | 81 | 1020.2 |
| 20260902150544 | 18 | 141 | 0.0 | 1.6 | 0.00 | 0.00 | 0.00 | 82 | 1020.1 |
| 20260902150039 | 18 | 145 | 0.0 | 0.0 | 0.00 | 0.00 | 0.00 | 83 | 1019.9 |
| 20260902145529 | 17 | 117 | 1.6 | 3.2 | 0.00 | 0.00 | 0.00 | 85 | 1020.1 |
| 20260902145029 | 17 | 86 | 3.2 | 3.2 | 0.00 | 0.00 | 0.00 | 85 | 1020.0 |
| 20260902144526 | 17 | 115 | 3.2 | 4.8 | 0.00 | 0.00 | 0.00 | 86 | 1020.1 |
| 20260902144026 | 17 | 102 | 3.2 | 3.2 | 0.00 | 0.00 | 0.00 | 86 | 1020.1 |
| 20260902143520 | 17 | 95 | 3.2 | 3.2 | 0.00 | 0.00 | 0.00 | 86 | 1020.0 |
| 20260902143016 | 16 | 126 | 0.0 | 0.0 | 0.00 | 0.00 | 0.00 | 88 | 1020.1 |
| 20260902142512 | 16 | 111 | 0.0 | 0.0 | 0.00 | 0.00 | 0.00 | 88 | 1020.0 |
| 20260902142007 | 16 | 119 | 0.0 | 0.0 | 0.00 | 0.00 | 0.00 | 89 | 1020.1 |
| 20260902141501 | 15 | 130 | 0.0 | 0.0 | 0.00 | 0.00 | 0.00 | 92 | 1020.1 |
| 20260902140955 | 14 | 147 | 0.0 | 0.0 | 0.00 | 0.00 | 0.00 | 94 | 1019.9 |
| 20260902140451 | 13 | 148 | 0.0 | 0.0 | 0.00 | 0.00 | 0.00 | 95 | 1019.7 |
| 20260902135950 | 13 | 149 | 0.0 | 0.0 | 0.00 | 0.00 | 0.00 | 96 | 1019.7 |
| 20260902135446 | 13 | 135 | 0.0 | 0.0 | 0.00 | 0.00 | 0.00 | 96 | 1019.7 |
| 20260902134945 | 13 | 108 | 0.0 | 0.0 | 0.00 | 0.00 | 0.00 | 96 | 1019.7 |
| 20260902134441 | 13 | 118 | 0.0 | 0.0 | 0.00 | 0.00 | 0.00 | 96 | 1019.6 |
| 20260902133936 | 12 | 156 | 0.0 | 0.0 | 0.00 | 0.00 | 0.00 | 96 | 1019.4 |
| 20260902133431 | 12 | 140 | 0.0 | 0.0 | 0.00 | 0.00 | 0.00 | 96 | 1019.4 |
| 20260902132926 | 12 | 139 | 0.0 | 0.0 | 0.00 | 0.00 | 0.00 | 96 | 1019.6 |
| 20260902132421 | 12 | 152 | 0.0 | 0.0 | 0.00 | 0.00 | 0.00 | 96 | 1019.6 |
| 20260902131916 | 12 | 132 | 0.0 | 0.0 | 0.00 | 0.00 | 0.00 | 96 | 1019.3 |
| 20260902131413 | 12 | 134 | 0.0 | 0.0 | 0.00 | 0.00 | 0.00 | 96 | 1019.8 |
| 20260902130912 | 12 | 135 | 0.0 | 0.0 | 0.00 | 0.00 | 0.00 | 95 | 1019.3 |
| 20260902130408 | 12 | 135 | 0.0 | 0.0 | 0.00 | 0.00 | 0.00 | 95 | 1019.3 |
| 20260902125903 | 12 | 136 | 0.0 | 0.0 | 0.00 | 0.00 | 0.00 | 95 | 1019.4 |
| 20260902125359 | 12 | 140 | 0.0 | 0.0 | 0.00 | 0.00 | 0.00 | 95 | 1019.6 |
| 20260902124854 | 12 | 141 | 0.0 | 0.0 | 0.00 | 0.00 | 0.00 | 95 | 1019.3 |
| 20260902124350 | 12 | 141 | 0.0 | 0.0 | 0.00 | 0.00 | 0.00 | 95 | 1019.6 |
| 20260902123845 | 12 | 141 | 0.0 | 0.0 | 0.00 | 0.00 | 0.00 | 95 | 1019.3 |
| 20260902123342 | 12 | 141 | 0.0 | 0.0 | 0.00 | 0.00 | 0.00 | 94 | 1019.6 |
| 20260902122840 | 12 | 141 | 0.0 | 0.0 | 0.00 | 0.00 | 0.00 | 94 | 1019.4 |
| 20260902122336 | 13 | 137 | 0.0 | 0.0 | 0.00 | 0.00 | 0.00 | 94 | 1019.2 |
| 20260902121836 | 13 | 137 | 0.0 | 0.0 | 0.00 | 0.00 | 0.00 | 94 | 1019.3 |
| 20260902121331 | 13 | 137 | 0.0 | 0.0 | 0.00 | 0.00 | 0.00 | 93 | 1019.4 |
| 20260902120826 | 13 | 136 | 0.0 | 0.0 | 0.00 | 0.00 | 0.00 | 93 | 1019.4 |
| 20260902120323 | 13 | 153 | 0.0 | 0.0 | 0.00 | 0.00 | 0.00 | 93 | 1019.3 |
| 20260902115817 | 13 | 181 | 1.6 | 3.2 | 0.00 | 0.00 | 0.00 | 93 | 1019.3 |
| 20260902115314 | 13 | 186 | 4.8 | 6.4 | 0.00 | 0.00 | 0.00 | 94 | 1019.1 |
| 20260902114810 | 13 | 163 | 4.8 | 4.8 | 0.00 | 0.00 | 0.00 | 93 | 1019.4 |
| 20260902114306 | 13 | 138 | 0.0 | 0.0 | 0.00 | 0.00 | 0.00 | 92 | 1019.3 |
| 20260902113805 | 13 | 140 | 0.0 | 0.0 | 0.00 | 0.00 | 0.00 | 92 | 1019.3 |
| 20260902113300 | 13 | 155 | 1.6 | 1.6 | 0.00 | 0.00 | 0.00 | 92 | 1019.6 |
| 20260902112800 | 13 | 146 | 0.0 | 0.0 | 0.00 | 0.00 | 0.00 | 92 | 1019.6 |
| 20260902112257 | 13 | 142 | 0.0 | 0.0 | 0.00 | 0.00 | 0.00 | 93 | 1019.4 |
| 20260902111752 | 13 | 148 | 0.0 | 0.0 | 0.00 | 0.00 | 0.00 | 93 | 1019.3 |
| 20260902111249 | 12 | 126 | 0.0 | 1.6 | 0.00 | 0.00 | 0.00 | 94 | 1019.4 |
| 20260902110744 | 12 | 123 | 0.0 | 0.0 | 0.00 | 0.00 | 0.00 | 94 | 1019.4 |
| 20260902110239 | 12 | 132 | 0.0 | 0.0 | 0.00 | 0.00 | 0.00 | 94 | 1019.1 |
| 20260902105734 | 12 | 132 | 0.0 | 0.0 | 0.00 | 0.00 | 0.00 | 94 | 1019.4 |
| 20260902105229 | 12 | 121 | 0.0 | 0.0 | 0.00 | 0.00 | 0.00 | 94 | 1019.3 |
| 20260902104724 | 12 | 137 | 0.0 | 0.0 | 0.00 | 0.00 | 0.00 | 94 | 1019.2 |
| 20260902104221 | 12 | 143 | 0.0 | 0.0 | 0.00 | 0.00 | 0.00 | 95 | 1019.2 |
| 20260902103720 | 12 | 145 | 0.0 | 0.0 | 0.00 | 0.00 | 0.00 | 95 | 1019.4 |
| 20260902103214 | 12 | 150 | 0.0 | 0.0 | 0.00 | 0.00 | 0.00 | 94 | 1019.3 |
| 20260902102710 | 12 | 150 | 0.0 | 0.0 | 0.00 | 0.00 | 0.00 | 94 | 1019.3 |
| 20260902102207 | 12 | 149 | 0.0 | 0.0 | 0.00 | 0.00 | 0.00 | 94 | 1019.2 |
| 20260902101702 | 12 | 149 | 0.0 | 0.0 | 0.00 | 0.00 | 0.00 | 94 | 1019.4 |
| 20260902101156 | 12 | 149 | 0.0 | 0.0 | 0.00 | 0.00 | 0.00 | 94 | 1019.6 |
| 20260902100656 | 12 | 149 | 0.0 | 0.0 | 0.00 | 0.00 | 0.00 | 94 | 1019.7 |
| 20260902100150 | 12 | 149 | 0.0 | 0.0 | 0.00 | 0.00 | 0.00 | 94 | 1019.6 |
| 20260902095649 | 12 | 149 | 0.0 | 0.0 | 0.00 | 0.00 | 0.00 | 94 | 1019.3 |
| 20260902095144 | 12 | 155 | 0.0 | 0.0 | 0.00 | 0.00 | 0.00 | 94 | 1019.7 |
| 20260902094639 | 12 | 155 | 0.0 | 0.0 | 0.00 | 0.00 | 0.00 | 94 | 1019.2 |
| 20260902094136 | 12 | 144 | 0.0 | 0.0 | 0.00 | 0.00 | 0.00 | 94 | 1019.4 |
| 20260902093635 | 12 | 144 | 0.0 | 0.0 | 0.00 | 0.00 | 0.00 | 93 | 1019.3 |
| 20260902093130 | 13 | 144 | 0.0 | 0.0 | 0.00 | 0.00 | 0.00 | 93 | 1019.6 |
| 20260902092624 | 13 | 142 | 0.0 | 0.0 | 0.00 | 0.00 | 0.00 | 93 | 1019.6 |
| 20260902092120 | 13 | 148 | 0.0 | 0.0 | 0.00 | 0.00 | 0.00 | 93 | 1019.6 |
| 20260902091615 | 13 | 142 | 0.0 | 0.0 | 0.00 | 0.00 | 0.00 | 93 | 1019.6 |
| 20260902091111 | 13 | 142 | 0.0 | 0.0 | 0.00 | 0.00 | 0.00 | 93 | 1019.7 |
| 20260902090607 | 13 | 155 | 0.0 | 0.0 | 0.00 | 0.00 | 0.00 | 94 | 1019.8 |
| 20260902090105 | 13 | 156 | 0.0 | 0.0 | 0.00 | 0.00 | 0.00 | 93 | 1019.7 |
| 20260902085606 | 13 | 164 | 0.0 | 0.0 | 0.00 | 0.00 | 0.00 | 93 | 1019.7 |
| 20260902085101 | 13 | 145 | 0.0 | 0.0 | 0.00 | 0.00 | 0.00 | 93 | 1019.7 |
| 20260902084557 | 13 | 144 | 0.0 | 0.0 | 0.00 | 0.00 | 0.00 | 92 | 1019.6 |
| 20260902084053 | 13 | 144 | 0.0 | 0.0 | 0.00 | 0.00 | 0.00 | 92 | 1019.7 |
| 20260902083548 | 13 | 137 | 0.0 | 0.0 | 0.00 | 0.00 | 0.00 | 92 | 1019.7 |
| 20260902083047 | 13 | 156 | 0.0 | 0.0 | 0.00 | 0.00 | 0.00 | 92 | 1019.7 |
| 20260902082543 | 13 | 158 | 0.0 | 0.0 | 0.00 | 0.00 | 0.00 | 92 | 1019.7 |
| 20260902082039 | 13 | 149 | 0.0 | 0.0 | 0.00 | 0.00 | 0.00 | 92 | 1019.7 |
| 20260902081536 | 13 | 147 | 0.0 | 0.0 | 0.00 | 0.00 | 0.00 | 91 | 1019.6 |
| 20260902081035 | 13 | 153 | 0.0 | 0.0 | 0.00 | 0.00 | 0.00 | 91 | 1019.9 |
| 20260902080531 | 13 | 149 | 0.0 | 0.0 | 0.00 | 0.00 | 0.00 | 91 | 1019.7 |
| 20260902080027 | 14 | 146 | 0.0 | 0.0 | 0.00 | 0.00 | 0.00 | 90 | 1019.8 |
| 20260902075527 | 14 | 143 | 0.0 | 0.0 | 0.00 | 0.00 | 0.00 | 90 | 1019.7 |
| 20260902075023 | 15 | 136 | 0.0 | 0.0 | 0.00 | 0.00 | 0.00 | 91 | 1019.9 |
| 20260902074518 | 15 | 136 | 0.0 | 0.0 | 0.00 | 0.00 | 0.00 | 92 | 1019.8 |
| 20260902074013 | 15 | 171 | 0.0 | 0.0 | 0.00 | 0.00 | 0.00 | 93 | 1019.4 |
| 20260902073503 | 15 | 155 | 0.0 | 0.0 | 0.00 | 0.00 | 0.00 | 91 | 1019.4 |
| 20260902073000 | 14 | 197 | 0.0 | 0.0 | 0.00 | 0.00 | 0.00 | 91 | 1019.4 |
| 20260902072455 | 14 | 147 | 0.0 | 0.0 | 0.00 | 0.00 | 0.00 | 89 | 1019.7 |
| 20260902071951 | 14 | 152 | 0.0 | 0.0 | 0.00 | 0.00 | 0.00 | 89 | 1019.8 |
| 20260902071451 | 14 | 143 | 0.0 | 0.0 | 0.00 | 0.00 | 0.00 | 89 | 1019.2 |
| 20260902070947 | 15 | 171 | 0.0 | 0.0 | 0.00 | 0.00 | 0.00 | 89 | 1019.4 |
| 20260902070443 | 15 | 164 | 0.0 | 0.0 | 0.00 | 0.00 | 0.00 | 89 | 1019.6 |
| 20260902065941 | 15 | 157 | 0.0 | 0.0 | 0.00 | 0.00 | 0.00 | 90 | 1019.7 |
| 20260902065436 | 15 | 163 | 1.6 | 1.6 | 0.00 | 0.00 | 0.00 | 91 | 1019.4 |
| 20260902064932 | 15 | 165 | 0.0 | 0.0 | 0.00 | 0.00 | 0.00 | 89 | 1019.3 |
| 20260902064427 | 15 | 173 | 0.0 | 0.0 | 0.00 | 0.00 | 0.00 | 90 | 1019.6 |
| 20260902063923 | 15 | 157 | 0.0 | 0.0 | 0.00 | 0.00 | 0.00 | 91 | 1019.1 |
| 20260902063423 | 15 | 159 | 0.0 | 0.0 | 0.00 | 0.00 | 0.00 | 91 | 1019.3 |
| 20260902062917 | 15 | 149 | 0.0 | 0.0 | 0.00 | 0.00 | 0.00 | 91 | 1019.0 |
| 20260902062416 | 15 | 149 | 0.0 | 0.0 | 0.00 | 0.00 | 0.00 | 91 | 1019.1 |
| 20260902061911 | 15 | 149 | 0.0 | 0.0 | 0.00 | 0.00 | 0.00 | 91 | 1019.1 |
| 20260902061407 | 15 | 149 | 0.0 | 0.0 | 0.00 | 0.00 | 0.00 | 91 | 1019.1 |
| 20260902060903 | 15 | 149 | 0.0 | 0.0 | 0.00 | 0.00 | 0.00 | 90 | 1019.3 |
| 20260902060358 | 15 | 149 | 0.0 | 0.0 | 0.00 | 0.00 | 0.00 | 90 | 1019.2 |
| 20260902055854 | 15 | 149 | 0.0 | 0.0 | 0.00 | 0.00 | 0.00 | 91 | 1019.1 |
| 20260902055350 | 15 | 149 | 0.0 | 0.0 | 0.00 | 0.00 | 0.00 | 90 | 1019.1 |
| 20260902054845 | 15 | 149 | 0.0 | 0.0 | 0.00 | 0.00 | 0.00 | 90 | 1019.2 |
| 20260902054340 | 15 | 149 | 0.0 | 0.0 | 0.00 | 0.00 | 0.00 | 90 | 1019.1 |
| 20260902053836 | 15 | 149 | 0.0 | 0.0 | 0.00 | 0.00 | 0.00 | 90 | 1019.2 |
| 20260902053331 | 15 | 149 | 0.0 | 0.0 | 0.00 | 0.00 | 0.00 | 90 | 1019.2 |
| 20260902052830 | 15 | 149 | 0.0 | 0.0 | 0.00 | 0.00 | 0.00 | 89 | 1019.1 |
| 20260902052325 | 16 | 155 | 0.0 | 0.0 | 0.00 | 0.00 | 0.00 | 89 | 1019.2 |
| 20260902051820 | 15 | 162 | 0.0 | 0.0 | 0.00 | 0.00 | 0.00 | 90 | 1019.1 |
| 20260902051320 | 15 | 163 | 0.0 | 0.0 | 0.00 | 0.00 | 0.00 | 89 | 1019.3 |
| 20260902050814 | 15 | 164 | 0.0 | 0.0 | 0.00 | 0.00 | 0.00 | 89 | 1019.1 |
| 20260902050314 | 15 | 164 | 0.0 | 0.0 | 0.00 | 0.00 | 0.00 | 89 | 1019.2 |
| 20260902045809 | 15 | 164 | 0.0 | 0.0 | 0.00 | 0.00 | 0.00 | 89 | 1019.4 |
| 20260902045306 | 15 | 165 | 0.0 | 0.0 | 0.00 | 0.00 | 0.00 | 89 | 1019.1 |
| 20260902044801 | 16 | 165 | 0.0 | 0.0 | 0.00 | 0.00 | 0.00 | 87 | 1019.2 |
| 20260902044256 | 16 | 165 | 0.0 | 0.0 | 0.00 | 0.00 | 0.00 | 88 | 1019.0 |
| 20260902043751 | 16 | 165 | 0.0 | 0.0 | 0.00 | 0.00 | 0.00 | 88 | 1019.1 |
| 20260902043247 | 16 | 166 | 0.0 | 0.0 | 0.00 | 0.00 | 0.00 | 88 | 1019.0 |
| 20260902042745 | 16 | 166 | 0.0 | 0.0 | 0.00 | 0.00 | 0.00 | 86 | 1019.1 |
| 20260902042240 | 16 | 167 | 0.0 | 0.0 | 0.00 | 0.00 | 0.00 | 86 | 1018.9 |
| 20260902041736 | 16 | 167 | 0.0 | 0.0 | 0.00 | 0.00 | 0.00 | 86 | 1018.9 |
| 20260902041236 | 16 | 168 | 0.0 | 0.0 | 0.00 | 0.00 | 0.00 | 85 | 1018.7 |
| 20260902040735 | 16 | 171 | 0.0 | 0.0 | 0.00 | 0.00 | 0.00 | 84 | 1019.0 |
| 20260902040230 | 17 | 171 | 0.0 | 0.0 | 0.00 | 0.00 | 0.00 | 84 | 1018.6 |
| 20260902035729 | 17 | 171 | 0.0 | 0.0 | 0.00 | 0.00 | 0.00 | 84 | 1018.8 |
| 20260902035225 | 17 | 171 | 0.0 | 0.0 | 0.00 | 0.00 | 0.00 | 84 | 1018.8 |
| 20260902034723 | 17 | 174 | 0.0 | 0.0 | 0.00 | 0.00 | 0.00 | 83 | 1018.7 |
| 20260902034218 | 17 | 171 | 0.0 | 0.0 | 0.00 | 0.00 | 0.00 | 83 | 1018.6 |
| 20260902033717 | 17 | 190 | 0.0 | 0.0 | 0.00 | 0.00 | 0.00 | 82 | 1018.7 |
| 20260902033212 | 17 | 176 | 0.0 | 3.2 | 0.00 | 0.00 | 0.00 | 81 | 1018.6 |
| 20260902032710 | 17 | 162 | 0.0 | 0.0 | 0.00 | 0.00 | 0.00 | 80 | 1018.5 |
| 20260902032206 | 17 | 164 | 0.0 | 0.0 | 0.00 | 0.00 | 0.00 | 80 | 1018.3 |
| 20260902031705 | 18 | 169 | 0.0 | 0.0 | 0.00 | 0.00 | 0.00 | 79 | 1018.3 |
| 20260902031201 | 18 | 170 | 0.0 | 0.0 | 0.00 | 0.00 | 0.00 | 78 | 1018.3 |
| 20260902030656 | 18 | 170 | 0.0 | 0.0 | 0.00 | 0.00 | 0.00 | 78 | 1018.3 |
| 20260902030156 | 18 | 156 | 0.0 | 0.0 | 0.00 | 0.00 | 0.00 | 77 | 1018.4 |
| 20260902025650 | 18 | 164 | 0.0 | 0.0 | 0.00 | 0.00 | 0.00 | 76 | 1018.3 |
| 20260902025146 | 18 | 180 | 1.6 | 1.6 | 0.00 | 0.00 | 0.00 | 76 | 1018.2 |
| 20260902024641 | 18 | 165 | 0.0 | 3.2 | 0.00 | 0.00 | 0.00 | 75 | 1017.9 |
| 20260902024136 | 18 | 212 | 1.6 | 3.2 | 0.00 | 0.00 | 0.00 | 74 | 1018.0 |
| 20260902023631 | 18 | 199 | 3.2 | 3.2 | 0.00 | 0.00 | 0.00 | 74 | 1018.0 |
| 20260902023126 | 19 | 121 | 0.0 | 0.0 | 0.00 | 0.00 | 0.00 | 73 | 1018.0 |
| 20260902022625 | 19 | 153 | 0.0 | 1.6 | 0.00 | 0.00 | 0.00 | 72 | 1017.8 |
| 20260902022122 | 20 | 218 | 1.6 | 3.2 | 0.00 | 0.00 | 0.00 | 72 | 1017.8 |
| 20260902021617 | 20 | 221 | 1.6 | 3.2 | 0.00 | 0.00 | 0.00 | 71 | 1017.9 |
| 20260902021112 | 20 | 207 | 3.2 | 3.2 | 0.00 | 0.00 | 0.00 | 69 | 1018.2 |
| 20260902020608 | 20 | 96 | 1.6 | 1.6 | 0.00 | 0.00 | 0.00 | 68 | 1017.8 |
| 20260902020103 | 20 | 133 | 0.0 | 1.6 | 0.00 | 0.00 | 0.00 | 67 | 1017.6 |
| 20260902015559 | 21 | 147 | 1.6 | 1.6 | 0.00 | 0.00 | 0.00 | 65 | 1018.0 |
| 20260902015054 | 21 | 156 | 0.0 | 0.0 | 0.00 | 0.00 | 0.00 | 64 | 1018.0 |
| 20260902014550 | 21 | 127 | 1.6 | 3.2 | 0.00 | 0.00 | 0.00 | 64 | 1017.8 |
| 20260902014045 | 21 | 204 | 1.6 | 3.2 | 0.00 | 0.00 | 0.00 | 63 | 1017.7 |
| 20260902013545 | 21 | 264 | 3.2 | 6.4 | 0.00 | 0.00 | 0.00 | 62 | 1017.8 |
| 20260902013041 | 22 | 48 | 1.6 | 3.2 | 0.00 | 0.00 | 0.00 | 61 | 1017.7 |
| 20260902012536 | 22 | 101 | 1.6 | 1.6 | 0.00 | 0.00 | 0.00 | 60 | 1017.9 |
| 20260902012031 | 22 | 336 | 1.6 | 3.2 | 0.00 | 0.00 | 0.00 | 59 | 1017.7 |
| 20260902011532 | 23 | 259 | 0.0 | 0.0 | 0.00 | 0.00 | 0.00 | 59 | 1017.7 |
| 20260902011032 | 23 | 161 | 0.0 | 3.2 | 0.00 | 0.00 | 0.00 | 59 | 1017.9 |
| 20260902010531 | 23 | 226 | 1.6 | 3.2 | 0.00 | 0.00 | 0.00 | 59 | 1017.7 |
| 20260902010027 | 23 | 163 | 3.2 | 4.8 | 0.00 | 0.00 | 0.00 | 59 | 1017.8 |
| 20260902005524 | 23 | 267 | 6.4 | 9.7 | 0.00 | 0.00 | 0.00 | 59 | 1017.9 |
| 20260902005021 | 23 | 110 | 0.0 | 1.6 | 0.00 | 0.00 | 0.00 | 60 | 1017.7 |
| 20260902004520 | 23 | 207 | 1.6 | 4.8 | 0.00 | 0.00 | 0.00 | 61 | 1017.9 |
| 20260902004016 | 23 | 171 | 1.6 | 3.2 | 0.00 | 0.00 | 0.00 | 61 | 1018.0 |
| 20260902003511 | 23 | 291 | 1.6 | 3.2 | 0.00 | 0.00 | 0.00 | 62 | 1017.9 |
| 20260902003006 | 23 | 222 | 6.4 | 9.7 | 0.00 | 0.00 | 0.00 | 61 | 1018.1 |
| 20260902002503 | 23 | 129 | 0.0 | 3.2 | 0.00 | 0.00 | 0.00 | 61 | 1017.9 |
| 20260902002001 | 23 | 170 | 0.0 | 3.2 | 0.00 | 0.00 | 0.00 | 61 | 1017.9 |
| 20260902001456 | 23 | 138 | 1.6 | 3.2 | 0.00 | 0.00 | 0.00 | 62 | 1017.8 |
| 20260902000952 | 24 | 279 | 6.4 | 9.7 | 0.00 | 0.00 | 0.00 | 61 | 1018.1 |
| 20260902000447 | 23 | 161 | 0.0 | 3.2 | 0.00 | 0.00 | 0.00 | 62 | 1018.0 |
| 20260901235941 | 24 | 130 | 1.6 | 11.3 | 0.00 | 0.00 | 0.00 | 62 | 1018.1 |
| 20260901235436 | 24 | 121 | 0.0 | 3.2 | 0.00 | 0.00 | 0.00 | 63 | 1018.0 |
| 20260901234932 | 24 | 230 | 4.8 | 6.4 | 0.00 | 0.00 | 0.00 | 61 | 1017.9 |
| 20260901234426 | 24 | 303 | 6.4 | 9.7 | 0.00 | 0.00 | 0.00 | 62 | 1018.2 |
| 20260901233920 | 24 | 224 | 3.2 | 4.8 | 0.00 | 0.00 | 0.00 | 61 | 1018.0 |
| 20260901233415 | 25 | 183 | 3.2 | 9.7 | 0.00 | 0.00 | 0.00 | 61 | 1017.9 |
| 20260901232912 | 25 | 305 | 1.6 | 3.2 | 0.00 | 0.00 | 0.00 | 61 | 1018.1 |
| 20260901232407 | 24 | 261 | 6.4 | 12.9 | 0.00 | 0.00 | 0.00 | 61 | 1018.1 |
| 20260901231902 | 25 | 188 | 6.4 | 9.7 | 0.00 | 0.00 | 0.00 | 60 | 1018.1 |
| 20260901231358 | 25 | 146 | 3.2 | 12.9 | 0.00 | 0.00 | 0.00 | 61 | 1018.5 |
| 20260901230855 | 25 | 218 | 8.0 | 11.3 | 0.00 | 0.00 | 0.00 | 59 | 1018.3 |
| 20260901230354 | 25 | 232 | 4.8 | 11.3 | 0.00 | 0.00 | 0.00 | 59 | 1018.2 |
| 20260901225850 | 25 | 288 | 4.8 | 9.7 | 0.00 | 0.00 | 0.00 | 59 | 1018.5 |
| 20260901225349 | 25 | 186 | 1.6 | 4.8 | 0.00 | 0.00 | 0.00 | 59 | 1018.5 |
| 20260901224844 | 25 | 178 | 6.4 | 17.7 | 0.00 | 0.00 | 0.00 | 59 | 1018.4 |
| 20260901224340 | 25 | 248 | 8.0 | 11.3 | 0.00 | 0.00 | 0.00 | 60 | 1018.6 |
| 20260901223836 | 25 | 258 | 4.8 | 14.5 | 0.00 | 0.00 | 0.00 | 60 | 1018.5 |
| 20260901223332 | 25 | 243 | 3.2 | 9.7 | 0.00 | 0.00 | 0.00 | 59 | 1018.5 |
| 20260901222827 | 25 | 354 | 3.2 | 12.9 | 0.00 | 0.00 | 0.00 | 59 | 1018.4 |
| 20260901222323 | 25 | 297 | 9.7 | 11.3 | 0.00 | 0.00 | 0.00 | 59 | 1018.5 |
| 20260901221819 | 25 | 195 | 1.6 | 4.8 | 0.00 | 0.00 | 0.00 | 59 | 1018.5 |
| 20260901221315 | 25 | 230 | 3.2 | 11.3 | 0.00 | 0.00 | 0.00 | 58 | 1018.5 |
| 20260901220813 | 26 | 307 | 3.2 | 11.3 | 0.00 | 0.00 | 0.00 | 58 | 1018.6 |
| 20260901220307 | 26 | 283 | 6.4 | 12.9 | 0.00 | 0.00 | 0.00 | 58 | 1018.4 |
| 20260901215806 | 26 | 298 | 6.4 | 6.4 | 0.00 | 0.00 | 0.00 | 58 | 1018.5 |
| 20260901215306 | 26 | 244 | 3.2 | 6.4 | 0.00 | 0.00 | 0.00 | 59 | 1018.6 |
| 20260901214804 | 26 | 344 | 4.8 | 11.3 | 0.00 | 0.00 | 0.00 | 57 | 1018.5 |
| 20260901214303 | 26 | 181 | 4.8 | 9.7 | 0.00 | 0.00 | 0.00 | 58 | 1018.6 |
| 20260901213758 | 26 | 213 | 3.2 | 9.7 | 0.00 | 0.00 | 0.00 | 59 | 1018.5 |
| 20260901213252 | 26 | 163 | 1.6 | 3.2 | 0.00 | 0.00 | 0.00 | 60 | 1018.6 |
| 20260901212746 | 26 | 234 | 3.2 | 11.3 | 0.00 | 0.00 | 0.00 | 59 | 1018.6 |
| 20260901212242 | 26 | 149 | 1.6 | 3.2 | 0.00 | 0.00 | 0.00 | 59 | 1018.8 |
| 20260901211737 | 26 | 316 | 1.6 | 9.7 | 0.00 | 0.00 | 0.00 | 59 | 1018.7 |
| 20260901211234 | 26 | 216 | 4.8 | 11.3 | 0.00 | 0.00 | 0.00 | 60 | 1018.6 |
| 20260901210730 | 26 | 299 | 6.4 | 11.3 | 0.00 | 0.00 | 0.00 | 59 | 1018.9 |
| 20260901210225 | 26 | 62 | 1.6 | 9.7 | 0.00 | 0.00 | 0.00 | 60 | 1018.8 |
| 20260901205721 | 26 | 263 | 8.0 | 11.3 | 0.00 | 0.00 | 0.00 | 59 | 1018.8 |
| 20260901205221 | 26 | 309 | 4.8 | 20.9 | 0.00 | 0.00 | 0.00 | 60 | 1018.9 |
| 20260901204716 | 26 | 24 | 3.2 | 3.2 | 0.00 | 0.00 | 0.00 | 60 | 1018.7 |
| 20260901204212 | 26 | 339 | 3.2 | 9.7 | 0.00 | 0.00 | 0.00 | 59 | 1018.9 |
| 20260901203707 | 26 | 292 | 3.2 | 6.4 | 0.00 | 0.00 | 0.00 | 59 | 1018.8 |
| 20260901203201 | 26 | 124 | 1.6 | 6.4 | 0.00 | 0.00 | 0.00 | 59 | 1018.9 |
| 20260901202701 | 26 | 112 | 1.6 | 4.8 | 0.00 | 0.00 | 0.00 | 60 | 1018.7 |
| 20260901202157 | 26 | 64 | 0.0 | 3.2 | 0.00 | 0.00 | 0.00 | 60 | 1018.9 |
| 20260901201652 | 26 | 273 | 6.4 | 11.3 | 0.00 | 0.00 | 0.00 | 59 | 1019.0 |
| 20260901201151 | 26 | 173 | 1.6 | 3.2 | 0.00 | 0.00 | 0.00 | 58 | 1019.1 |
| 20260901200651 | 26 | 298 | 1.6 | 11.3 | 0.00 | 0.00 | 0.00 | 59 | 1019.2 |
| 20260901200147 | 26 | 73 | 3.2 | 9.7 | 0.00 | 0.00 | 0.00 | 58 | 1019.1 |
| 20260901195643 | 26 | 156 | 4.8 | 4.8 | 0.00 | 0.00 | 0.00 | 58 | 1019.3 |
| 20260901195138 | 26 | 113 | 1.6 | 12.9 | 0.00 | 0.00 | 0.00 | 59 | 1019.3 |
| 20260901194633 | 26 | 166 | 1.6 | 4.8 | 0.00 | 0.00 | 0.00 | 59 | 1019.2 |
| 20260901194129 | 26 | 155 | 1.6 | 9.7 | 0.00 | 0.00 | 0.00 | 59 | 1019.6 |
| 20260901193624 | 26 | 15 | 1.6 | 9.7 | 0.00 | 0.00 | 0.00 | 59 | 1019.4 |
| 20260901193118 | 26 | 119 | 1.6 | 3.2 | 0.00 | 0.00 | 0.00 | 60 | 1019.7 |
| 20260901192613 | 26 | 69 | 1.6 | 3.2 | 0.00 | 0.00 | 0.00 | 60 | 1019.4 |
| 20260901192108 | 26 | 98 | 3.2 | 3.2 | 0.00 | 0.00 | 0.00 | 59 | 1019.6 |
| 20260901191604 | 26 | 13 | 4.8 | 6.4 | 0.00 | 0.00 | 0.00 | 60 | 1019.6 |
| 20260901191100 | 26 | 180 | 4.8 | 11.3 | 0.00 | 0.00 | 0.00 | 58 | 1019.6 |
| 20260901190556 | 26 | 303 | 3.2 | 11.3 | 0.00 | 0.00 | 0.00 | 59 | 1019.6 |
| 20260901190055 | 26 | 140 | 0.0 | 4.8 | 0.00 | 0.00 | 0.00 | 60 | 1019.8 |
| 20260901185553 | 26 | 186 | 6.4 | 9.7 | 0.00 | 0.00 | 0.00 | 59 | 1019.7 |